Torna al catalogo

STARLINK-31404

AttivoComunicazioniVLEO
NORAD 59521·PAYLOAD·🇺🇸 United States

Lanciato Apr 17, 2024 da Cape Canaveral Space Force Station

Loading…

Prossimi Passaggi (prossime 24 ore)

TLE

AggiornatoSource: CelesTrak SupGP

Epoca: Sep 15, 2026, 02:21 UTC

1 59521C 24073L   26258.09840278  .00038880  00000+0  14079-2 0  2586
2 59521  43.0034 328.6708 0001789 270.3927 294.4892 15.27567013    13

Traccia STARLINK-31404 in tempo reale con AllMySat

Download on the App Store